Simultaneous Nadir Overpasses (SNOs) Predictions

Prediction of SNOs between GOES-16 and AQUA Satellite Orbit:

Table of predicted SNOs for the next 14.0 days since TLE Epoch: 1/12/2018
Index Date Time (GOES-16) GOES-16 Lat,Lon AQUA Lat,Lon Distance(km) Time Diff (sec)
1 01/13/2018 18:23:21 -0.01, -75.22 0.77, -71.67 404.20 80
2 01/14/2018 06:44:36 0.01, -75.18 0.37, -76.81 185.44 80
3 01/16/2018 06:29:45 0.01, -75.19 -0.25, -73.85 152.15 80
4 01/16/2018 18:51:09 -0.02, -75.23 -0.82, -79.05 434.16 80
5 01/18/2018 06:17:35 0.01, -75.21 -0.93, -70.91 490.19 80
6 01/18/2018 18:38:58 -0.01, -75.25 -0.19, -76.09 95.95 80
7 01/20/2018 18:26:48 -0.01, -75.27 0.43, -73.13 242.82 80
8 01/21/2018 06:50:43 0.01, -75.24 0.63, -78.29 346.05 80
9 01/23/2018 06:38:32 0.01, -75.27 -0.00, -75.34 7.12 80
10 01/25/2018 06:23:41 0.01, -75.30 -0.64, -72.38 333.14 80
11 01/25/2018 18:47:45 -0.01, -75.34 -0.49, -77.56 252.81 80




NCC Satellite Simultaneous Nadir Overpasses (SNOs) Prediction Service
